Panama City, FL

5:15 AM CDT on September 20, 2017 (GMT -0500)
Northwest Florida Beaches International

Weather History for KECP - November, 2013

Change the Weather History Date:

Saturday, November 2, 2013

  Actual Average Record
Temperature  
Mean Temperature 65 °F -  
Max Temperature 78 °F - 86 °F (2016)
Min Temperature 52 °F - 35 °F (2014)
Degree Days  
Heating Degree Days 0    
Cooling Degree Days 0    
Growing Degree Days 15 (Base 50)    
Moisture  
Dew Point 55 °F    
Average Humidity 67    
Maximum Humidity 100    
Minimum Humidity 33    
Precipitation  
Precipitation 0.00 in - 0.24 in (2015)
Month to date precipitation  
Year to date precipitation  
Sea Level Pressure  
Sea Level Pressure 29.96 in    
Wind  
Wind Speed 5 mph (NW)    
Max Wind Speed 14 mph    
Max Gust Speed 44 mph    
Visibility 8 miles    
Events Fog    
T = Trace of Precipitation, MM = Missing Value Source: NWS Daily Summary

Daily Weather History Graph

Daily Weather History Graph

Search for Another Location

Airport or City:

Trip Planner

Search our weather history database for the weather conditions in past years. The results will help you decide how hot, cold, wet, or windy it might be!

Date:

Astronomy

Nov. 02, 2013 Rise Set
Actual Time 7:58 AM EDT 6:54 PM EDT
Civil Twilight 7:33 AM EDT 7:19 PM EDT
Nautical Twilight 7:05 AM EDT 7:47 PM EDT
Astronomical Twilight 6:37 AM EDT 8:16 PM EDT
Moon 6:58 AM EDT (11/2) 6:24 PM EDT (11/2)
Length of Visible Light 11h 45m
Length of Day
10h 56m
Waning Crescent, 1% of the Moon is Illuminated
Nov 2
Waning Crescent
Nov 3
New
Nov 10
First Quarter
Nov 17
Full
Nov 25
Last Quarter

Hourly Weather History & Observations

Time (EDT) Temp. Dew Point Humidity Pressure Visibility Wind Dir Wind Speed Gust Speed Precip Events Conditions
12:49 AM 66.2 °F 66.2 °F 100% 29.87 in 10.0 mi WNW 5.8 mph - N/A   Scattered Clouds
12:53 AM 66.0 °F 66.0 °F 100% 29.91 in 10.0 mi WNW 6.9 mph - N/A   Mostly Cloudy
1:53 AM 64.9 °F 64.9 °F 100% 29.90 in 8.0 mi NW 5.8 mph - N/A   Mostly Cloudy
2:00 AM 64.4 °F 64.4 °F 100% 29.87 in 8.0 mi NW 5.8 mph - N/A   Scattered Clouds
2:53 AM 63.0 °F 63.0 °F 100% 29.91 in 8.0 mi NW 6.9 mph - N/A   Clear
3:53 AM 61.0 °F 61.0 °F 100% 29.91 in 10.0 mi NW 4.6 mph - N/A   Clear
4:53 AM 59.0 °F 59.0 °F 100% 29.90 in 10.0 mi Calm Calm - N/A   Clear
5:43 AM 57.2 °F 57.2 °F 100% 29.88 in 1.8 mi Calm Calm - N/A   Clear
5:53 AM 57.0 °F 57.0 °F 100% 29.92 in 5.0 mi Calm Calm - N/A   Clear
6:19 AM 55.4 °F 55.4 °F 100% 29.90 in 2.5 mi Calm Calm - N/A   Partly Cloudy
6:23 AM 55.4 °F 55.4 °F 100% 29.90 in 1.0 mi Calm Calm - N/A   Mist
6:30 AM 55.4 °F 55.4 °F 100% 29.90 in 0.5 mi Calm Calm - N/A Fog Fog
6:39 AM 55.4 °F 55.4 °F 100% 29.89 in 1.2 mi Calm Calm - N/A   Partly Cloudy
6:53 AM 55.0 °F 55.0 °F 100% 29.93 in 10.0 mi Calm Calm - N/A   Clear
7:53 AM 53.1 °F 53.1 °F 100% 29.95 in 10.0 mi Calm Calm - N/A   Clear
8:53 AM 54.0 °F 54.0 °F 100% 30.00 in 10.0 mi Calm Calm - N/A   Clear
9:53 AM 61.0 °F 57.0 °F 87% 30.02 in 10.0 mi NW 4.6 mph - N/A   Clear
10:53 AM 66.0 °F 57.0 °F 73% 30.02 in 10.0 mi NNW 6.9 mph - N/A   Clear
11:53 AM 70.0 °F 55.9 °F 61% 30.02 in 10.0 mi NNW 4.6 mph - N/A   Scattered Clouds
12:53 PM 73.0 °F 52.0 °F 48% 30.01 in 10.0 mi NNW 8.1 mph - N/A   Partly Cloudy
1:53 PM 75.0 °F 51.1 °F 43% 29.99 in 10.0 mi NNW 6.9 mph - N/A   Clear
2:53 PM 75.9 °F 50.0 °F 40% 29.96 in 10.0 mi WNW 9.2 mph - N/A   Partly Cloudy
3:53 PM 77.0 °F 46.9 °F 34% 29.95 in 10.0 mi West 9.2 mph - N/A   Partly Cloudy
4:53 PM 75.9 °F 46.0 °F 35% 29.95 in 10.0 mi WNW 9.2 mph - N/A   Scattered Clouds
5:53 PM 73.0 °F 50.0 °F 44% 29.96 in 10.0 mi WNW 3.5 mph - N/A   Scattered Clouds
6:53 PM 66.9 °F 54.0 °F 63% 29.98 in 10.0 mi WSW 5.8 mph - N/A   Partly Cloudy
7:53 PM 64.9 °F 55.9 °F 73% 30.01 in 10.0 mi West 4.6 mph - N/A   Mostly Cloudy
8:53 PM 60.1 °F 53.1 °F 78% 30.05 in 10.0 mi NW 6.9 mph - N/A   Clear
9:53 PM 57.9 °F 53.1 °F 84% 30.07 in 10.0 mi NW 5.8 mph - N/A   Clear
10:53 PM 59.0 °F 48.9 °F 69% 30.09 in 10.0 mi NNW 10.4 mph - N/A   Clear
11:53 PM 57.9 °F 46.0 °F 65% 30.10 in 10.0 mi NNW 9.2 mph - N/A   Clear